Portada
METAR-TAF:

METAR-TAF

Aeropuertos :

Warrensburg, Misuri, Estados Unidos

latitud: 38-47-03N, longitud: 093-48-10W, altitud: 243 m

Observación

El informe se hizo hace 12 minutos, a las 22:55 UTC
Viento 3 kt del norte-noroeste
Temperatura 27°C
Humedad 48%
Presión 1019 hPa
Visibilidad: 16.1 km
Cielo despejado

METAR: KRCM 012255Z AUTO 34003KT 10SM CLR 27/15 A3008 RMK AO2

Hora: 18:07 (23:07 UTC)


TAF: falta

Observaciones y pronósticos meteorológicos de más de 4000 aeropuertos (mensajes METAR y TAF).

Los puntos amarillos y rojos representan las estaciones disponibles.

Ponga el ratón en el punto deseado para ver el nombre de la estación.

Haga clic para ver las observaciones y los pronósticos meteorológicos.

Para cambiar el mapa : haga clic en los botones verdes con una cruz de color negro para hacer un zoom, en el botón verde con un guión para alejar o en las flechas verdes para mapas adyacentes.


METAR-TAF: